Time,TemperatureF,DewpointF,PressureIn,WindDirection,WindDirectionDegrees,WindSpeedMPH,WindSpeedGustMPH,Humidity,HourlyPrecipIn,Conditions,Clouds,dailyrainin,SolarRadiationWatts/m^2,SoftwareType,DateUTC
2013-07-21 00:02:00,73.0,70.0,-100.00,South,178,0.0,6.0,89,0.00,,,0.00,0.000000,,2013-07-21 05:02:00,
2013-07-21 00:32:00,72.0,70.0,-100.00,West,280,0.0,6.0,92,0.00,,,0.00,0.000000,,2013-07-21 05:32:00,
2013-07-21 00:42:00,72.0,70.0,-100.00,West,280,0.0,6.0,92,0.00,,,0.00,0.000000,,2013-07-21 05:42:00,
2013-07-21 00:52:00,72.0,70.0,-100.00,West,280,0.0,6.0,92,0.00,,,0.00,0.000000,,2013-07-21 05:52:00,
2013-07-21 01:01:00,72.0,70.0,-100.00,West,280,0.0,6.0,92,0.00,,,0.00,0.000000,,2013-07-21 06:01:00,
2013-07-21 01:32:00,71.0,70.0,-100.00,WNW,284,1.0,7.0,96,0.00,,,0.00,0.000000,,2013-07-21 06:32:00,
2013-07-21 01:43:00,71.0,70.0,-100.00,WNW,284,1.0,7.0,96,0.00,,,0.00,0.000000,,2013-07-21 06:43:00,
2013-07-21 01:53:00,71.0,70.0,-100.00,WNW,284,1.0,7.0,96,0.00,,,0.00,0.000000,,2013-07-21 06:53:00,
2013-07-21 02:01:00,71.0,70.0,-100.00,WNW,284,1.0,7.0,96,0.00,,,0.00,0.000000,,2013-07-21 07:01:00,
2013-07-21 02:32:00,71.0,70.0,-100.00,SW,229,1.0,7.0,97,0.00,,,0.00,0.000000,,2013-07-21 07:32:00,
2013-07-21 02:43:00,71.0,70.0,-100.00,SW,229,1.0,7.0,97,0.00,,,0.00,0.000000,,2013-07-21 07:43:00,
2013-07-21 02:53:00,71.0,70.0,-100.00,SW,229,1.0,7.0,97,0.00,,,0.00,0.000000,,2013-07-21 07:53:00,
2013-07-21 03:02:00,71.0,70.0,-100.00,SW,229,1.0,7.0,97,0.00,,,0.00,0.000000,,2013-07-21 08:02:00,
2013-07-21 03:33:00,70.0,70.0,-100.00,SW,226,0.0,6.0,99,0.00,,,0.00,0.000000,,2013-07-21 08:33:00,
2013-07-21 03:43:00,70.0,70.0,-100.00,SW,226,0.0,6.0,99,0.00,,,0.00,0.000000,,2013-07-21 08:43:00,
2013-07-21 03:52:00,70.0,70.0,-100.00,SW,226,0.0,6.0,99,0.00,,,0.00,0.000000,,2013-07-21 08:52:00,
2013-07-21 04:02:00,70.0,70.0,-100.00,SW,226,0.0,6.0,99,0.00,,,0.00,0.000000,,2013-07-21 09:02:00,
2013-07-21 04:32:00,70.0,70.0,-100.00,WSW,247,0.0,0.0,99,0.00,,,0.00,0.000000,,2013-07-21 09:32:00,
2013-07-21 04:42:00,70.0,70.0,-100.00,WSW,247,0.0,0.0,99,0.00,,,0.00,0.000000,,2013-07-21 09:42:00,
2013-07-21 04:52:00,70.0,70.0,-100.00,WSW,247,0.0,0.0,99,0.00,,,0.00,0.000000,,2013-07-21 09:52:00,
2013-07-21 05:02:00,70.0,70.0,-100.00,WSW,247,0.0,0.0,99,0.00,,,0.00,0.000000,,2013-07-21 10:02:00,
2013-07-21 05:32:00,70.0,70.0,-100.00,SW,226,3.0,9.0,100,0.00,,,0.00,0.000000,,2013-07-21 10:32:00,
2013-07-21 05:43:00,70.0,70.0,-100.00,SW,226,3.0,9.0,100,0.00,,,0.00,0.000000,,2013-07-21 10:43:00,
2013-07-21 05:52:00,70.0,70.0,-100.00,SW,226,3.0,9.0,100,0.00,,,0.00,0.000000,,2013-07-21 10:52:00,
2013-07-21 06:02:00,70.0,70.0,-100.00,SW,226,3.0,9.0,100,0.00,,,0.00,0.000000,,2013-07-21 11:02:00,
2013-07-21 06:33:00,70.0,70.0,-100.00,West,266,3.0,8.0,100,0.00,,,0.00,4.000000,,2013-07-21 11:33:00,
2013-07-21 06:43:00,70.0,70.0,-100.00,West,266,3.0,8.0,100,0.00,,,0.00,4.000000,,2013-07-21 11:43:00,
2013-07-21 06:52:00,70.0,70.0,-100.00,West,266,3.0,8.0,100,0.00,,,0.00,4.000000,,2013-07-21 11:52:00,
2013-07-21 07:01:00,70.0,70.0,-100.00,West,266,3.0,8.0,100,0.00,,,0.00,4.000000,,2013-07-21 12:01:00,
2013-07-21 07:32:00,70.0,70.0,-100.00,SW,234,4.0,9.0,99,0.00,,,0.00,42.000000,,2013-07-21 12:32:00,
2013-07-21 07:43:00,70.0,70.0,-100.00,SW,234,4.0,9.0,99,0.00,,,0.00,42.000000,,2013-07-21 12:43:00,
2013-07-21 07:53:00,70.0,70.0,-100.00,SW,234,4.0,9.0,99,0.00,,,0.00,42.000000,,2013-07-21 12:53:00,
2013-07-21 08:02:00,70.0,70.0,-100.00,SW,234,4.0,9.0,99,0.00,,,0.00,42.000000,,2013-07-21 13:02:00,
2013-07-21 08:33:00,75.0,71.0,-100.00,WSW,246,2.0,9.0,87,0.00,,,-99.99,238.000000,,2013-07-21 13:33:00,
2013-07-21 08:43:00,75.0,71.0,-100.00,WSW,246,2.0,9.0,87,0.00,,,-99.99,238.000000,,2013-07-21 13:43:00,
2013-07-21 08:53:00,75.0,71.0,-100.00,WSW,246,2.0,9.0,87,0.00,,,-99.99,238.000000,,2013-07-21 13:53:00,
2013-07-21 09:01:00,75.0,71.0,-100.00,WSW,246,2.0,9.0,87,0.00,,,-99.99,238.000000,,2013-07-21 14:01:00,
2013-07-21 09:32:00,78.0,71.0,-100.00,West,279,1.0,11.0,80,0.00,,,0.00,390.000000,,2013-07-21 14:32:00,
2013-07-21 09:43:00,78.0,71.0,-100.00,West,279,1.0,11.0,80,0.00,,,0.00,390.000000,,2013-07-21 14:43:00,
2013-07-21 09:53:00,78.0,71.0,-100.00,West,279,1.0,11.0,80,0.00,,,0.00,390.000000,,2013-07-21 14:53:00,
2013-07-21 10:02:00,78.0,71.0,-100.00,West,279,1.0,11.0,80,0.00,,,0.00,390.000000,,2013-07-21 15:02:00,
2013-07-21 10:32:00,80.0,73.0,-100.00,South,174,0.0,7.0,78,0.00,,,0.00,488.000000,,2013-07-21 15:32:00,
2013-07-21 10:43:00,80.0,73.0,-100.00,South,174,0.0,7.0,78,0.00,,,0.00,488.000000,,2013-07-21 15:43:00,
2013-07-21 10:53:00,80.0,73.0,-100.00,South,174,0.0,7.0,78,0.00,,,0.00,488.000000,,2013-07-21 15:53:00,
2013-07-21 11:01:00,80.0,73.0,-100.00,South,174,0.0,7.0,78,0.00,,,0.00,488.000000,,2013-07-21 16:01:00,
2013-07-21 11:32:00,82.0,72.0,-100.00,WSW,248,4.0,10.0,72,0.00,,,0.00,788.000000,,2013-07-21 16:32:00,
2013-07-21 11:43:00,82.0,72.0,-100.00,WSW,248,4.0,10.0,72,0.00,,,0.00,788.000000,,2013-07-21 16:43:00,
2013-07-21 11:52:00,82.0,72.0,-100.00,WSW,248,4.0,10.0,72,0.00,,,0.00,788.000000,,2013-07-21 16:52:00,
2013-07-21 12:02:00,82.0,72.0,-100.00,WSW,248,4.0,10.0,72,0.00,,,0.00,788.000000,,2013-07-21 17:02:00,
2013-07-21 12:33:00,84.0,72.0,-100.00,SSW,204,5.0,13.0,68,0.00,,,0.00,858.000000,,2013-07-21 17:33:00,
2013-07-21 12:43:00,84.0,72.0,-100.00,SSW,204,5.0,13.0,68,0.00,,,0.00,858.000000,,2013-07-21 17:43:00,
2013-07-21 12:53:00,84.0,72.0,-100.00,SSW,204,5.0,13.0,68,0.00,,,0.00,858.000000,,2013-07-21 17:53:00,
2013-07-21 13:01:00,84.0,72.0,-100.00,SSW,204,5.0,13.0,68,0.00,,,0.00,858.000000,,2013-07-21 18:01:00,
2013-07-21 13:32:00,85.0,70.0,-100.00,SW,219,4.0,11.0,60,0.00,,,0.00,903.000000,,2013-07-21 18:32:00,
2013-07-21 14:32:00,70.0,68.0,-100.00,NW,314,4.0,17.0,94,-99.99,,,-99.99,508.000000,,2013-07-21 19:32:00,
2013-07-21 14:42:00,70.0,68.0,-100.00,NW,314,4.0,17.0,94,-99.99,,,-99.99,508.000000,,2013-07-21 19:42:00,
2013-07-21 14:52:00,70.0,68.0,-100.00,NW,314,4.0,17.0,94,-99.99,,,-99.99,508.000000,,2013-07-21 19:52:00,
2013-07-21 15:02:00,70.0,68.0,-100.00,NW,314,4.0,17.0,94,-99.99,,,-99.99,508.000000,,2013-07-21 20:02:00,
2013-07-21 15:32:00,75.0,72.0,-100.00,North,10,1.0,8.0,90,0.00,,,0.09,291.000000,,2013-07-21 20:32:00,
2013-07-21 15:43:00,75.0,72.0,-100.00,North,10,1.0,8.0,90,0.00,,,0.09,291.000000,,2013-07-21 20:43:00,
2013-07-21 15:52:00,75.0,72.0,-100.00,North,10,1.0,8.0,90,0.00,,,0.09,291.000000,,2013-07-21 20:52:00,
2013-07-21 16:01:00,75.0,72.0,-100.00,North,10,1.0,8.0,90,0.00,,,0.09,291.000000,,2013-07-21 21:01:00,
2013-07-21 16:32:00,81.0,67.0,-100.00,ESE,102,0.0,7.0,63,0.00,,,0.09,719.000000,,2013-07-21 21:32:00,
2013-07-21 16:43:00,81.0,67.0,-100.00,ESE,102,0.0,7.0,63,0.00,,,0.09,719.000000,,2013-07-21 21:43:00,
2013-07-21 16:52:00,81.0,67.0,-100.00,ESE,102,0.0,7.0,63,0.00,,,0.09,719.000000,,2013-07-21 21:52:00,
2013-07-21 17:01:00,81.0,67.0,-100.00,ESE,102,0.0,7.0,63,0.00,,,0.09,719.000000,,2013-07-21 22:01:00,
2013-07-21 17:32:00,76.0,71.0,-100.00,SSE,150,1.0,7.0,85,0.00,,,0.09,272.000000,,2013-07-21 22:32:00,
2013-07-21 17:43:00,76.0,71.0,-100.00,SSE,150,1.0,7.0,85,0.00,,,0.09,272.000000,,2013-07-21 22:43:00,
2013-07-21 17:52:00,76.0,71.0,-100.00,SSE,150,1.0,7.0,85,0.00,,,0.09,272.000000,,2013-07-21 22:52:00,
2013-07-21 18:02:00,76.0,71.0,-100.00,SSE,150,1.0,7.0,85,0.00,,,0.09,272.000000,,2013-07-21 23:02:00,
2013-07-21 18:32:00,74.0,72.0,-100.00,WSW,247,0.0,0.0,95,0.01,,,0.10,72.000000,,2013-07-21 23:32:00,
2013-07-21 18:43:00,74.0,72.0,-100.00,WSW,247,0.0,0.0,95,0.01,,,0.10,72.000000,,2013-07-21 23:43:00,
2013-07-21 18:53:00,74.0,72.0,-100.00,WSW,247,0.0,0.0,95,0.01,,,0.10,72.000000,,2013-07-21 23:53:00,
2013-07-21 19:01:00,74.0,72.0,-100.00,WSW,247,0.0,0.0,95,0.01,,,0.10,72.000000,,2013-07-22 00:01:00,
2013-07-21 19:32:00,71.0,70.0,-100.00,South,189,0.0,0.0,97,0.01,,,0.11,30.000000,,2013-07-22 00:32:00,
2013-07-21 19:42:00,71.0,70.0,-100.00,South,189,0.0,0.0,97,0.01,,,0.11,30.000000,,2013-07-22 00:42:00,
2013-07-21 19:53:00,71.0,70.0,-100.00,South,189,0.0,0.0,97,0.01,,,0.11,30.000000,,2013-07-22 00:53:00,
2013-07-21 20:02:00,71.0,70.0,-100.00,South,189,0.0,0.0,97,0.01,,,0.11,30.000000,,2013-07-22 01:02:00,
2013-07-21 20:32:00,70.0,70.0,-100.00,South,183,0.0,1.0,99,0.01,,,0.12,2.000000,,2013-07-22 01:32:00,
2013-07-21 20:42:00,70.0,70.0,-100.00,South,183,0.0,1.0,99,0.01,,,0.12,2.000000,,2013-07-22 01:42:00,
2013-07-21 20:52:00,70.0,70.0,-100.00,South,183,0.0,1.0,99,0.01,,,0.12,2.000000,,2013-07-22 01:52:00,
2013-07-21 21:02:00,70.0,70.0,-100.00,South,183,0.0,1.0,99,0.01,,,0.12,2.000000,,2013-07-22 02:02:00,
2013-07-21 21:32:00,70.0,69.0,-100.00,WSW,253,0.0,2.0,98,0.00,,,0.12,0.000000,,2013-07-22 02:32:00,
2013-07-21 21:43:00,70.0,69.0,-100.00,WSW,253,0.0,2.0,98,0.00,,,0.12,0.000000,,2013-07-22 02:43:00,
2013-07-21 21:52:00,70.0,69.0,-100.00,WSW,253,0.0,2.0,98,0.00,,,0.12,0.000000,,2013-07-22 02:52:00,
2013-07-21 22:01:00,70.0,69.0,-100.00,WSW,253,0.0,2.0,98,0.00,,,0.12,0.000000,,2013-07-22 03:01:00,
2013-07-21 22:33:00,69.0,69.0,-100.00,West,269,0.0,7.0,99,0.00,,,0.12,0.000000,,2013-07-22 03:33:00,
2013-07-21 22:43:00,69.0,69.0,-100.00,West,269,0.0,7.0,99,0.00,,,0.12,0.000000,,2013-07-22 03:43:00,
2013-07-21 22:53:00,69.0,69.0,-100.00,West,269,0.0,7.0,99,0.00,,,0.12,0.000000,,2013-07-22 03:53:00,
2013-07-21 23:01:00,69.0,69.0,-100.00,West,269,0.0,7.0,99,0.00,,,0.12,0.000000,,2013-07-22 04:01:00,
2013-07-21 23:33:00,69.0,69.0,-100.00,SW,227,1.0,5.0,100,0.00,,,0.12,0.000000,,2013-07-22 04:33:00,
2013-07-21 23:43:00,69.0,69.0,-100.00,SW,227,1.0,5.0,100,0.00,,,0.12,0.000000,,2013-07-22 04:43:00,